Flag for U.S.A. Weather past 2 weeks in Terre Haute, Indiana, U.S.A.

Now
51 °F

Passing clouds.


Feels Like: 47 °F
Forecast: 45 / 67 °F
Wind: 10 mph from Southwest

Location: Terre Haute International Airport - Hulman Field

Current Time: Oct 20, 2014 at 9:26:33 AM

Latest Report: Oct 20, 2014 at 8:53 AM


Visibility: 10 mi

Pressure: 29.94 "Hg

Humidity: 83%

Dew point: 46 °F

Location of Terre HauteLocation

Historic Weather in Terre Haute — Graph

°F

Terre Haute temperature yesterday

Maximum temperature yesterday: 54 °F (at 1:53 PM)
Minimum temperature yesterday: 36 °F (at 7:53 AM)
Average temperature yesterday: 47 °F

Past Weeks' High & Low Weather Summary

 TemperatureHumidityPressure
High74 °F (Oct 13, 4:53 PM)100% (Oct 19, 8:53 AM)30.27 "Hg (Oct 19, 8:53 AM)
Low36 °F (Oct 19, 7:53 AM)35% (Oct 8, 3:53 PM)29.50 "Hg (Oct 14, 12:53 PM)
Average54 °F81%29.91 "Hg
* Reported Oct 5 7:53 AM — Oct 20 7:53 AM, Terre Haute, Weather by CustomWeather, © 2014

Note: Actual official high and low records may vary slightly from our data, if they occured in-between our weather recording intervals... More about our weather records

Advertising

Terre Haute weather history for previous 24 hours

 ConditionsComfort  
Time TempWeatherWind HumidityBarometerVisibility
7:53 AM
Oct 20
50 °FPassing clouds.8 mph83%29.95 "Hg10 mi
6:53 AM50 °FOvercast.7 mph83%29.95 "Hg10 mi
5:53 AM50 °FOvercast.8 mph83%29.96 "Hg10 mi
4:53 AM50 °FLight rain. Mostly cloudy.9 mph83%29.98 "Hg10 mi
3:53 AM49 °FPassing clouds.7 mph84%30.00 "Hg10 mi
2:53 AM48 °FPassing clouds.5 mph83%30.01 "Hg10 mi
1:53 AM48 °FOvercast.6 mph83%30.03 "Hg10 mi
12:53 AM46 °FPassing clouds.6 mph89%30.03 "Hg10 mi
10:53 PM
Oct 19
44 °FClear.No wind89%30.07 "Hg10 mi
9:53 PM45 °FClear.No wind86%30.07 "Hg10 mi
8:53 PM46 °FClear.3 mph83%30.09 "Hg10 mi
7:53 PM46 °FSunny.5 mph83%30.11 "Hg10 mi
6:53 PM49 °FSunny.6 mph74%30.11 "Hg10 mi
5:53 PM52 °FSunny.7 mph66%30.12 "Hg10 mi
4:53 PM54 °FSunny.7 mph59%30.14 "Hg10 mi
3:53 PM54 °FPassing clouds.8 mph62%30.16 "Hg10 mi
2:53 PM54 °FPartly sunny.6 mph59%30.19 "Hg10 mi
1:53 PM54 °FScattered clouds.9 mph59%30.22 "Hg10 mi
1:02 PM52 °FPartly sunny.8 mph61%30.25 "Hg10 mi
12:53 PM52 °FOvercast.6 mph61%30.25 "Hg10 mi
12:01 PM52 °FPartly sunny.8 mph61%30.26 "Hg10 mi
11:53 AM51 °FScattered clouds.No wind61%30.27 "Hg10 mi
10:53 AM48 °FPartly sunny.7 mph68%30.27 "Hg10 mi
9:53 AM47 °FSunny.No wind77%30.26 "Hg10 mi
Weather by CustomWeather, © 2014

See weather overviewHow to use our weather pages